Wind_Speed
42 42 42 43 42 41 41 42 41 39 40 44 45 50 53 51 51 54 60 62 66 67 69 72 73 74 79 82 82 84 86 88 89 89 90 91 92 92 93 93 94 93 93 92
42 42 42 40 41 42 41 41 42 45 45 47 46 51 50 54 52 57 61 66 68 67 68 72 76 77 80 83 85 86 87 89 91 91 92 94 96 97 97 98 97 98 97 96
40 41 39 40 41 41 42 42 42 44 43 43 43 47 47 53 57 59 62 70 73 71 71 72 72 74 75 79 82 84 87 89 90 91 93 95 95 96 99 100 102 103 102 101
38 39 39 40 41 41 42 41 40 40 42 45 43 47 54 58 62 66 66 66 66 67 69 71 73 75 75 79 80 83 87 90 90 92 93 93 94 95 97 99 102 102 104 104
39 39 40 41 42 42 40 39 37 39 41 44 50 51 55 65 66 63 59 53 54 57 56 57 62 63 66 69 70 70 72 76 80 84 86 89 90 91 94 97 97 99 102 102
39 41 42 42 41 40 38 37 38 40 42 47 53 55 59 62 63 60 54 50 48 45 45 49 51 51 48 49 51 51 54 58 62 66 70 75 80 85 89 91 93 94 97 100
40 40 42 43 41 38 36 35 40 40 45 48 54 57 59 59 55 52 53 48 46 49 48 47 42 42 43 45 45 48 51 51 53 56 61 65 68 72 76 80 85 88 92 96
37 36 41 39 36 34 36 35 40 45 48 53 55 57 54 54 51 53 49 44 41 49 53 48 43 39 40 43 43 45 47 49 48 50 54 57 59 63 64 65 68 72 76 83
33 26 34 40 35 36 38 38 41 45 49 54 56 53 56 54 55 63 60 55 45 49 53 47 42 41 41 43 45 45 47 51 50 51 54 55 55 54 55 56 57 59 62 65
36 34 37 38 42 41 43 42 44 43 47 50 54 55 56 55 54 61 62 55 50 51 51 45 40 40 42 42 44 43 43 44 44 48 49 48 50 50 49 50 51 52 54 55
40 41 42 40 50 43 47 44 44 46 46 45 49 57 58 60 53 58 64 58 53 54 56 42 35 37 41 43 41 41 41 40 43 40 38 38 38 38 38 40 42 43 44 47
42 45 48 42 49 46 46 46 45 45 45 47 50 55 64 59 59 56 59 63 54 54 56 41 35 37 43 43 40 40 38 40 35 35 35 35 35 34 34 34 36 37 38 40
48 48 48 48 51 44 44 47 46 47 48 52 53 59 63 62 64 57 60 62 56 55 55 42 37 37 39 38 37 35 36 34 34 34 34 34 34 34 34 33 32 33 34 36
48 46 46 50 51 48 41 47 51 51 52 56 59 62 57 61 64 60 61 61 52 53 55 44 36 37 37 35 30 28 30 30 28 28 30 30 31 32 30 28 28 28 28 29
48 47 45 51 57 52 48 48 50 54 55 56 60 61 58 63 66 60 61 58 54 52 54 47 36 35 36 29 21 28 31 28 32 32 31 28 28 28 27 24 23 24 21 21
53 50 50 50 55 54 50 53 55 57 60 58 59 61 60 68 64 60 60 56 51 50 52 47 37 34 32 16 24 29 28 31 35 37 36 32 33 34 29 25 21 19 19 19
54 55 53 52 52 49 52 60 60 60 60 60 61 65 66 66 60 64 57 52 47 49 52 44 33 33 14 19 25 27 30 33 33 36 35 37 36 35 33 29 27 25 26 28
54 57 57 54 55 53 58 58 56 57 58 64 69 67 65 63 66 64 55 48 47 46 49 45 30 28 13 20 27 29 23 29 32 36 39 42 34 31 30 25 25 28 30 32
56 54 55 55 56 53 58 57 57 62 62 67 64 65 65 67 59 58 55 51 44 43 41 27 28 18 15 22 25 17 24 32 41 47 48 44 31 24 20 13 13 18 22 21
56 57 56 57 57 59 64 60 62 63 62 61 65 63 61 64 54 55 51 47 43 45 42 28 26 15 16 20 17 17 27 38 40 46 46 41 25 15 9 4 5 9 7 6
59 59 58 58 58 62 62 54 60 62 63 67 62 61 60 59 56 53 50 43 41 39 37 24 20 12 20 20 12 22 27 35 41 44 46 30 18 7 1 1 5 5 8 8
62 58 60 60 58 59 60 62 65 64 60 59 56 62 60 58 58 51 50 39 40 34 33 22 12 13 20 17 15 22 30 34 37 45 35 21 11 7 8 13 16 18 17 20
54 55 56 61 65 62 59 57 57 57 59 62 64 63 56 56 53 50 45 36 33 30 26 19 10 16 16 9 17 17 28 30 36 36 24 12 14 15 24 28 28 32 35 35
57 58 59 60 60 57 54 56 57 59 60 63 66 63 57 50 46 42 34 32 25 25 20 14 10 13 9 5 13 20 26 24 29 21 16 22 27 27 36 51 54 50 48 49
55 59 58 56 56 58 58 56 58 63 64 67 66 64 56 46 40 33 27 27 18 20 17 8 12 8 3 4 9 19 20 21 18 16 26 46 55 56 54 51 51 52 53 54
61 61 59 59 60 65 62 59 61 62 65 64 61 54 48 42 36 26 25 20 14 16 14 11 12 8 6 3 10 13 13 18 25 32 44 48 50 49 48 47 47 47 47 50
Wind_Direction
285 285 286 289 289 289 287 287 284 278 278 279 281 280 280 276 275 274 275 273 274 272 269 268 266 266 267 266 264 263 263 262 262 261 261 261 261 261 261 261 261 261 261 259
287 287 288 289 289 290 290 289 289 288 286 283 287 286 289 289 284 281 280 282 277 273 274 274 272 270 268 268 268 267 265 264 262 261 260 260 260 261 260 260 261 261 260 260
285 285 285 287 288 289 290 291 291 292 291 290 289 288 292 291 292 291 289 287 287 287 284 281 279 274 271 269 267 267 267 266 264 263 262 261 261 261 261 261 261 260 260 260
281 283 284 287 289 291 292 292 290 289 290 292 293 295 296 295 296 297 297 294 290 286 282 279 277 276 274 271 270 268 268 267 267 265 264 263 260 260 260 261 260 259 261 260
281 281 283 286 287 288 287 288 285 286 290 294 296 300 306 306 302 298 295 293 288 287 290 289 284 281 277 276 275 273 271 270 269 268 267 266 265 262 261 259 258 258 259 259
280 281 283 285 284 285 285 283 284 287 291 297 303 305 306 306 308 310 307 301 298 305 306 299 290 286 284 283 281 280 278 276 274 273 271 269 267 266 264 262 260 259 258 258
278 280 282 283 283 282 280 283 285 289 295 298 300 306 313 313 313 318 317 307 301 309 313 305 290 287 286 285 286 285 284 283 280 278 275 272 269 266 266 266 265 263 262 260
281 283 282 278 279 276 279 286 288 295 296 300 305 310 318 323 323 326 323 308 305 315 321 312 297 295 294 290 289 287 288 288 289 286 280 276 273 272 271 268 266 265 263 261
284 283 275 279 280 280 280 285 289 293 298 306 311 320 327 330 328 330 332 327 313 318 322 315 294 298 300 297 294 293 293 292 292 287 286 284 279 277 274 269 266 264 264 263
279 281 277 279 278 282 281 284 289 291 301 306 312 318 321 333 328 325 327 327 320 320 323 315 292 295 301 300 298 298 297 293 293 290 287 287 283 282 278 274 269 267 265 264
278 277 275 275 279 281 281 284 289 294 302 308 312 312 320 328 326 322 325 328 324 321 327 317 295 300 307 305 304 304 301 300 299 299 298 293 290 285 280 276 272 270 269 265
279 276 279 277 277 280 283 285 287 299 304 309 309 310 313 328 325 322 325 328 323 326 329 315 302 308 310 312 312 306 308 307 304 306 303 299 296 290 281 276 273 270 266 263
279 278 277 277 277 281 286 287 291 295 302 303 304 302 310 322 323 321 324 326 324 323 329 315 304 310 316 314 308 312 315 320 324 318 314 308 302 297 288 283 278 274 271 269
277 279 275 275 277 278 279 282 287 295 297 297 299 301 313 313 320 320 322 321 320 324 328 316 307 311 317 317 317 326 328 327 329 328 324 318 310 307 301 293 286 278 271 265
274 273 271 274 276 276 276 283 283 283 291 296 295 300 309 313 316 318 322 319 323 323 326 321 309 311 317 326 332 328 330 329 325 327 323 310 308 308 308 300 289 284 273 264
266 267 274 278 278 276 277 281 281 285 291 297 300 305 309 308 313 315 321 317 320 321 328 322 311 314 322 322 331 321 322 324 326 330 329 323 306 298 296 296 291 281 275 265
263 265 264 269 270 272 278 280 284 289 296 300 299 303 304 306 309 311 315 315 316 321 323 325 316 312 316 330 318 324 322 326 338 334 326 324 316 303 295 283 279 276 271 270
256 261 267 269 274 275 275 279 287 290 293 294 295 299 304 303 302 306 310 316 314 313 322 326 310 313 314 315 321 326 343 343 336 328 326 326 316 301 295 287 269 268 272 274
258 258 264 269 269 270 275 278 285 288 288 292 296 299 295 296 301 307 310 309 309 306 324 321 298 301 310 309 319 329 337 336 346 342 339 333 324 314 309 298 270 272 275 278
264 265 265 264 268 274 276 282 285 285 289 287 291 297 298 300 303 303 308 308 311 311 329 318 309 279 295 310 317 330 338 346 339 337 343 338 330 329 318 311 298 281 287 250
262 263 266 269 272 275 281 281 282 283 284 289 294 292 293 297 296 301 304 307 301 310 323 308 297 277 305 307 316 337 341 344 342 339 343 345 340 353 283 61 79 103 109 136
259 261 265 270 272 278 278 280 282 286 288 288 288 288 293 296 297 297 296 302 293 312 314 304 276 283 308 304 325 332 336 334 342 341 351 357 26 66 104 99 99 105 110 108
258 261 264 265 270 273 277 281 282 281 283 286 288 290 296 291 292 291 293 290 293 306 306 302 257 288 308 316 339 350 349 347 338 343 360 39 73 95 99 103 109 104 100 102
258 260 261 266 270 274 277 279 284 287 289 292 292 293 290 289 287 285 287 279 292 298 289 301 240 291 322 292 356 357 349 344 334 15 61 90 100 108 113 109 108 108 108 105
258 262 263 266 269 272 276 282 285 288 292 294 294 292 295 288 282 284 275 273 288 288 271 264 247 269 236 302 349 4 359 354 17 72 93 107 112 113 114 115 111 108 107 104
258 260 265 268 272 276 279 279 282 288 289 290 291 293 287 281 278 273 259 261 271 269 252 209 245 209 205 253 21 31 64 49 72 105 117 110 105 104 106 105 105 105 105 106
Height
10823 10822 10820 10817 10814 10812 10810 10807 10806 10809 10807 10802 10800 10790 10789 10793 10789 10784 10777 10775 10773 10773 10772 10769 10767 10764 10758 10755 10758 10756 10756 10754 10754 10755 10755 10754 10753 10754 10752 10752 10753 10754 10756 10761
10813 10810 10809 10807 10804 10802 10800 10797 10794 10791 10792 10790 10787 10780 10777 10769 10774 10768 10764 10758 10756 10757 10754 10748 10744 10745 10739 10736 10732 10732 10730 10728 10728 10730 10732 10730 10729 10728 10728 10728 10730 10729 10734 10736
10803 10800 10799 10798 10796 10793 10790 10788 10785 10781 10780 10777 10777 10771 10769 10761 10756 10754 10749 10742 10737 10736 10730 10724 10724 10717 10716 10711 10709 10708 10702 10701 10701 10703 10703 10703 10706 10706 10702 10703 10703 10704 10706 10711
10794 10792 10790 10788 10785 10783 10781 10779 10775 10772 10769 10764 10765 10762 10754 10753 10743 10735 10731 10724 10718 10713 10706 10703 10697 10693 10692 10686 10686 10682 10678 10675 10676 10674 10674 10675 10677 10679 10678 10678 10677 10679 10680 10683
10784 10782 10781 10779 10776 10775 10773 10770 10768 10764 10761 10757 10752 10753 10746 10732 10726 10721 10716 10709 10701 10695 10689 10682 10676 10671 10665 10663 10662 10659 10655 10652 10649 10648 10648 10648 10648 10650 10651 10649 10652 10653 10654 10657
10775 10772 10770 10770 10767 10765 10764 10762 10759 10756 10753 10748 10741 10740 10737 10725 10714 10703 10698 10691 10685 10681 10676 10665 10660 10654 10650 10646 10643 10642 10637 10632 10630 10628 10627 10624 10623 10622 10622 10621 10625 10628 10629 10630
10764 10763 10760 10758 10758 10756 10755 10754 10749 10748 10744 10740 10736 10730 10722 10711 10703 10694 10686 10679 10675 10668 10662 10653 10647 10642 10638 10634 10631 10627 10621 10618 10614 10611 10606 10602 10600 10598 10597 10597 10598 10602 10602 10603
10755 10756 10749 10747 10748 10748 10746 10746 10741 10736 10732 10728 10722 10717 10711 10700 10693 10686 10680 10671 10665 10656 10647 10637 10633 10631 10626 10622 10619 10614 10609 10603 10600 10595 10588 10584 10581 10579 10577 10575 10574 10573 10574 10574
10746 10749 10742 10736 10739 10740 10738 10738 10733 10727 10722 10711 10707 10704 10696 10689 10680 10671 10665 10658 10653 10647 10638 10629 10623 10619 10615 10611 10606 10603 10597 10591 10587 10580 10573 10566 10563 10561 10559 10555 10554 10553 10552 10553
10736 10738 10735 10733 10728 10729 10728 10728 10725 10722 10716 10709 10694 10693 10691 10687 10677 10668 10659 10651 10643 10636 10631 10621 10615 10610 10606 10601 10595 10591 10585 10579 10575 10567 10559 10553 10549 10546 10542 10539 10536 10537 10536 10535
10726 10724 10724 10727 10714 10721 10716 10717 10714 10711 10708 10703 10697 10681 10682 10680 10672 10662 10652 10644 10637 10628 10620 10611 10606 10601 10596 10590 10585 10579 10574 10568 10561 10553 10546 10540 10535 10531 10528 10525 10523 10522 10522 10523
10716 10712 10709 10715 10707 10708 10708 10705 10703 10701 10695 10690 10686 10679 10667 10669 10661 10655 10645 10635 10625 10618 10612 10603 10597 10592 10586 10580 10575 10569 10564 10557 10549 10542 10536 10529 10524 10519 10515 10513 10511 10510 10510 10510
10703 10701 10699 10698 10694 10700 10698 10692 10691 10688 10687 10680 10677 10669 10660 10659 10652 10645 10638 10629 10619 10612 10605 10596 10590 10583 10578 10572 10567 10560 10553 10546 10539 10532 10525 10519 10514 10510 10506 10503 10502 10501 10500 10499
10689 10689 10687 10684 10683 10686 10689 10684 10679 10675 10672 10668 10662 10659 10659 10652 10645 10637 10630 10623 10615 10605 10596 10588 10582 10576 10572 10565 10559 10552 10545 10539 10534 10526 10520 10513 10507 10502 10497 10494 10492 10491 10492 10492
10676 10675 10677 10674 10667 10672 10675 10673 10670 10665 10662 10660 10655 10648 10649 10643 10637 10629 10623 10613 10604 10598 10588 10580 10575 10571 10564 10558 10551 10544 10539 10533 10526 10520 10514 10508 10502 10497 10493 10489 10486 10485 10484 10484
10661 10662 10663 10662 10656 10658 10662 10658 10655 10653 10649 10647 10641 10636 10640 10628 10627 10620 10615 10607 10598 10590 10581 10573 10569 10564 10558 10552 10546 10540 10535 10527 10521 10514 10507 10501 10495 10490 10487 10484 10482 10480 10480 10480
10648 10645 10649 10648 10646 10649 10649 10639 10643 10641 10635 10632 10627 10625 10626 10622 10615 10610 10607 10600 10591 10583 10574 10568 10564 10557 10552 10547 10542 10536 10529 10523 10516 10510 10503 10494 10486 10479 10476 10476 10476 10475 10474 10474
10634 10633 10633 10636 10636 10639 10633 10632 10633 10627 10628 10620 10616 10617 10613 10607 10602 10601 10596 10592 10583 10577 10569 10564 10557 10552 10547 10543 10537 10531 10525 10518 10511 10502 10493 10484 10475 10469 10465 10464 10464 10465 10464 10463
10617 10621 10623 10623 10622 10626 10619 10623 10623 10617 10616 10611 10607 10601 10601 10597 10590 10589 10585 10583 10578 10569 10566 10559 10551 10548 10544 10539 10533 10528 10521 10513 10505 10495 10483 10472 10465 10459 10456 10456 10457 10457 10455 10455
10602 10605 10608 10608 10611 10612 10605 10612 10608 10605 10606 10601 10598 10594 10585 10583 10580 10577 10577 10571 10566 10557 10558 10552 10548 10544 10539 10535 10530 10525 10518 10511 10499 10488 10478 10467 10459 10455 10453 10452 10452 10451 10452 10451
10590 10591 10592 10593 10597 10598 10597 10598 10595 10592 10594 10591 10588 10580 10576 10576 10572 10571 10567 10566 10558 10554 10553 10547 10544 10541 10537 10532 10528 10523 10517 10509 10496 10485 10474 10464 10456 10454 10453 10452 10453 10453 10452 10452
10575 10578 10579 10580 10581 10585 10584 10586 10584 10581 10578 10574 10573 10566 10568 10565 10560 10561 10557 10558 10549 10551 10545 10543 10541 10539 10535 10531 10528 10523 10517 10507 10495 10483 10474 10464 10458 10455 10455 10455 10457 10458 10459 10457
10561 10567 10566 10566 10569 10572 10571 10571 10572 10569 10566 10561 10557 10556 10558 10552 10551 10547 10549 10546 10545 10544 10540 10539 10538 10537 10533 10531 10528 10523 10517 10507 10496 10484 10475 10468 10464 10463 10462 10463 10467 10468 10467 10468
10548 10553 10555 10554 10554 10557 10559 10556 10554 10550 10549 10547 10540 10541 10540 10541 10537 10537 10539 10536 10539 10537 10535 10536 10536 10534 10532 10531 10528 10523 10517 10510 10497 10490 10483 10477 10474 10473 10473 10476 10476 10477 10478 10479
10536 10535 10540 10543 10543 10543 10543 10545 10542 10536 10533 10530 10527 10521 10523 10523 10524 10528 10527 10527 10532 10530 10531 10532 10533 10532 10532 10531 10529 10524 10520 10512 10502 10498 10494 10491 10489 10487 10486 10487 10489 10491 10492 10493
10519 10523 10526 10528 10530 10522 10528 10532 10529 10528 10522 10517 10514 10513 10510 10509 10512 10519 10517 10521 10525 10524 10526 10529 10531 10531 10532 10532 10530 10528 10524 10517 10510 10507 10507 10506 10506 10506 10506 10506 10506 10506 10507 10507